SCP
0 0 0 0 0 0 0 0 0 0 0 0 0 0 0 0 0 0 0 0 0 0 0 0 0 0 0 0 0 0 0 0 0 0 0 0 0 0 0 0 0 0 0 0
0 0 0 0 0 0 0 0 0 0 0 0 0 0 0 -0 -0 0 0 0 0 0 0 0 0 0 0 0 0 0 0 0 0 0 0 0 0 0 0 0 0 0 0 0
0 0 0 0 0 0 0 0 0 0 0 0 0 0 0 0 0 0 0 0 0 0 0 0 0 0 0 0 0 0 0 0 0 0 0 0 0 0 0 0 0 0 0 0
0 0 0 0 0 0 0 0 0 0 0 0 0 0 0 -0 -0 0 0 0 0 0 0 0 0 0 0 0 0 0 0 0 0 0 0 0 0 0 0 0 0 0 0 0
0 0 0 0 0 0 0 0 0 0 0 0 0 0 0 0 0 0 0 0 0 0 0 0 0 0 0 0 0 0 0 0 0 0 -0 0 0 0 0 0 0 0 0 0
0 0 0 0 0 0 0 0 0 0 0 0 0 0 0 0 0 0 0 0 0 0 0 0 0 0 0 0 0 0 0 0 0 0 0 0 -0 0 0 0 0 0 0 0
0 0 0 0 0 0 0 0 0 0 0 0 0 0 0 0 0 0 0 0 0 0 0 0 0 0 0 0 0 0 0 0 0 0 0 0 0 0 0 0 0 0 0 0
0 0 0 0 0 0 0 0 0 0 0 0 0 0 0 0 0 0 0 0 0 0 0 0 0 0 0 0 -0 -0 0 0 0 0 0 0 0 0 0 0 0 0 0 0
0 0 0 0 0 0 0 0 0 0 0 0 0 0 0 0 0 0 0 0 0 0 0 0 0 -0 -0 -0 -0 -0 -0 -0 0 0 0 0 0 0 0 0 0 0 0 0
0 0 0 0 0 0 0 0 0 0 0 0 0 0 0 0 0 0 0 0 0 0 0 0 -0 -0 -0 -0 -0 -0 -0 -0 -0 -0 0 0 0 0 0 0 0 0 0 0
0 0 0 0 0 0 0 0 0 0 0 0 0 0 0 0 0 0 0 0 0 0 0 -0 -0 -0 -0 -0 -0 -0 -0 -0 0 0 0 0 0 0 0 0 0 0 0 0
0 0 0 0 0 0 0 0 0 0 0 0 0 0 0 0 0 0 0 0 0 0 -0 -0 -0 -0 -0 -0 0 0 0 0 0 0 -0 -0 0 0 0 0 0 0 0 0
0 0 0 0 0 0 0 0 0 0 0 0 0 0 0 0 0 0 0 -0 -0 -0 0 0 0 0 0 0 0 0 0 0 0 0 0 0 0 0 -0 0 0 0 0 0
0 0 0 0 0 0 0 0 0 0 0 0 0 0 0 0 0 0 0 -0 0 -0 -0 0 0 0 0 0 0 0 0 0 0 0 0 0 0 0 0 -0 -0 -0 -0 -0
0 0 0 0 0 0 0 0 0 0 0 0 0 0 0 0 0 0 0 0 0 -0 -0 0 0 0 0 0 0 0 0 0 0 0 0 0 0 0 0 0 -0 -0 -0 -0
0 0 0 0 0 0 0 0 0 0 0 0 0 0 0 0 0 0 0 0 0 0 0 0 0 -0 -0 -0 -0 -0 -0 0 0 0 0 0 0 0 0 -0 -0 -0 -0 -0
0 0 0 0 0 0 0 0 0 0 0 0 0 0 0 0 0 0 0 0 0 0 0 0 -0 -0 -0 -0 -0 -0 -0 -0 0 0 0 0 0 0 0 0 0 -0 -0 -0
0 0 0 0 0 0 0 0 0 0 0 0 0 0 0 0 0 0 0 0 0 0 0 0 0 0 0 0 -0 -0 -0 -0 -0 0 0 0 0 0 0 0 0 0 0 -0
0 0 0 0 0 0 0 0 0 0 0 0 0 0 0 0 0 0 0 0 0 0 0 -0 -0 0 0 0 0 0 -0 -0 -0 -0 -0 -0 0 0 0 0 0 0 0 0
0 0 0 0 0 0 0 0 0 0 0 0 0 0 0 0 0 0 0 0 0 0 0 0 0 0 0 0 0 0 0 0 -0 -0 0 0 0 0 0 0 0 0 0 0
0 0 0 0 0 0 0 0 0 0 0 0 0 0 0 0 0 0 0 0 0 0 0 0 0 0 0 0 0 0 0 0 0 0 0 0 0 0 0 0 0 0 0 0
0 0 0 0 0 0 0 0 0 0 0 0 0 0 0 0 0 0 0 0 0 0 0 0 0 0 0 0 0 0 0 0 0 0 0 0 0 0 0 0 0 0 0 0
0 0 0 0 0 0 0 0 0 0 0 0 0 0 0 0 0 0 0 0 0 0 0 0 0 0 0 0 0 0 0 0 0 0 0 0 0 0 0 0 0 0 0 0
0 0 0 0 0 0 0 0 0 0 0 0 0 0 0 0 0 0 0 0 0 0 0 0 0 0 0 0 0 0 0 0 0 0 0 0 0 0 0 0 0 0 0 0
0 0 0 0 0 0 0 0 0 0 0 0 0 0 0 0 0 0 0 0 0 0 0 0 0 0 0 0 0 0 0 0 0 0 0 0 0 0 0 0 0 0 0 0
0 0 0 0 0 0 0 0 0 0 0 0 0 0 0 0 0 0 0 0 0 0 0 0 0 0 0 0 0 0 0 0 0 0 0 0 0 0 0 0 0 0 0 0
Wind_Speed_500mb
19 15 21 31 33 41 45 46 49 42 38 45 47 48 39 53 61 67 57 49 33 21 20 28 32 28 24 16 10 13 21 30 38 44 54 61 70 71 71 75 75 76 80 81
8 24 32 33 33 26 36 45 47 43 35 31 37 47 50 49 55 55 44 33 12 15 26 33 35 32 34 24 13 7 4 16 25 27 33 36 35 48 55 64 69 76 80 84
31 30 31 25 30 35 41 38 44 49 40 37 39 41 27 17 35 27 17 19 39 33 32 36 40 46 45 45 39 24 14 6 4 15 24 27 34 40 33 48 57 69 73 82
18 4 7 20 28 33 39 33 29 29 25 23 10 18 30 38 26 23 34 39 36 35 34 34 36 44 48 50 50 52 45 33 22 11 7 13 16 24 23 32 40 53 60 69
4 9 10 17 17 22 29 11 17 18 22 30 26 18 9 10 15 31 30 32 35 36 35 38 40 41 47 49 49 45 43 40 37 28 14 8 14 18 20 21 31 39 45 49
26 3 8 9 16 17 10 20 28 31 15 16 26 26 12 5 16 26 27 27 29 29 32 35 38 44 48 47 47 46 45 45 41 33 26 18 12 13 18 21 30 36 39 45
23 24 17 9 13 15 14 15 12 10 13 15 10 13 19 22 14 18 21 22 24 25 28 32 35 36 40 43 42 42 43 47 45 41 36 31 26 21 18 16 25 28 32 39
20 24 12 17 13 8 12 5 6 11 15 29 29 18 20 5 27 28 24 24 22 21 21 23 23 24 27 31 35 39 42 40 40 40 41 39 36 33 26 24 24 24 29 34
17 12 7 8 3 6 8 9 10 7 16 10 19 41 38 28 25 22 22 20 18 18 21 24 24 25 27 29 33 39 42 41 38 35 35 37 41 42 40 36 30 29 30 34
4 16 7 6 4 16 11 8 9 9 12 29 27 36 25 17 10 14 12 17 20 22 24 23 24 25 27 30 34 42 47 44 42 39 35 33 31 33 37 43 44 40 34 34
8 7 11 9 13 25 7 9 9 7 10 20 25 17 10 21 10 16 9 9 13 16 19 20 20 21 28 32 37 38 41 46 50 48 43 38 38 38 36 36 38 43 47 47
15 8 17 45 42 38 27 32 33 18 16 16 22 25 16 19 15 6 4 8 10 11 13 17 20 23 25 33 38 43 43 44 47 48 48 49 46 42 41 41 40 42 43 44
10 5 11 14 26 3 10 10 13 23 9 30 30 23 13 18 12 6 14 8 7 6 11 15 20 25 26 28 35 40 44 47 50 53 54 54 54 54 52 52 51 48 48 48
3 13 23 26 36 40 41 43 35 21 13 26 21 30 43 36 20 10 11 12 9 6 7 14 16 19 21 25 29 35 40 45 51 52 55 58 62 62 60 59 60 59 58 57
8 19 28 33 39 35 31 34 47 43 39 37 43 45 47 40 30 15 7 8 10 14 14 14 14 19 25 30 34 38 42 47 54 57 58 60 63 64 68 70 70 70 68 65
9 19 21 31 38 40 44 50 53 46 46 50 49 52 43 21 4 8 9 10 17 22 21 17 16 19 22 24 29 36 47 50 53 56 60 65 69 72 74 78 82 85 81 76
12 11 12 32 33 32 29 43 42 49 50 49 44 33 13 12 6 8 14 21 27 29 30 27 25 25 25 26 28 32 38 50 58 60 64 68 74 78 80 82 86 90 95 95
26 25 17 24 21 35 22 14 24 29 32 30 18 3 8 2 16 21 24 27 30 36 38 37 39 40 37 37 37 41 62 68 73 76 79 79 78 80 84 89 92 93 93 96
37 29 16 15 25 35 44 34 29 19 31 4 11 13 5 18 30 36 27 29 35 39 38 40 47 44 40 44 46 74 84 82 81 80 80 81 84 87 88 89 91 96 102 104
12 26 21 13 19 24 22 11 2 6 23 15 12 8 14 27 18 23 42 39 39 39 41 46 43 49 54 61 77 82 82 81 80 81 81 81 80 84 100 108 112 113 113 114
6 8 27 26 26 25 17 1 4 15 16 23 13 19 31 21 32 45 46 42 38 41 42 40 47 55 65 76 83 93 92 81 75 79 87 88 84 84 89 95 108 112 121 129
14 12 13 11 17 26 6 10 15 17 6 14 36 45 42 44 40 38 41 40 38 36 45 53 63 73 79 83 88 94 100 94 96 100 104 101 94 90 92 93 103 98 95 98
15 20 13 15 14 19 23 23 31 34 43 61 65 58 46 42 39 34 34 31 35 46 52 57 66 77 81 83 88 98 107 106 107 108 111 111 108 103 97 87 90 90 87 87
32 50 28 32 36 51 58 66 65 66 61 62 59 50 42 35 31 38 35 38 41 47 53 59 70 78 88 92 95 96 97 97 100 105 108 107 99 95 88 81 77 81 84 85
30 22 28 30 45 50 60 66 66 63 64 60 46 47 41 33 34 35 39 41 46 52 58 62 72 81 89 93 91 88 91 92 95 96 93 89 86 79 81 80 77 77 80 81
48 38 26 30 54 45 53 59 53 52 58 52 51 46 39 39 39 37 39 41 47 52 59 69 74 82 83 83 85 85 83 82 84 88 86 84 84 82 81 82 84 74 73 75
Wind_Direction_500mb
193 224 224 253 255 261 277 284 282 283 288 291 289 291 291 291 285 270 282 288 294 314 27 37 28 24 25 11 343 260 245 249 246 241 236 238 241 244 242 239 241 241 244 242
200 247 262 279 281 288 281 280 281 284 281 290 295 290 295 280 276 280 286 296 323 72 53 38 35 39 35 28 14 12 281 245 255 235 241 237 239 243 248 247 243 242 242 243
261 282 306 290 276 271 266 275 284 291 305 300 289 285 266 268 278 303 349 93 84 70 56 44 43 47 53 47 38 30 29 32 261 258 248 244 229 240 244 248 246 245 245 247
260 351 319 293 275 272 282 294 309 306 311 297 18 288 301 277 270 94 75 76 63 56 58 53 50 46 46 51 56 55 53 50 48 34 308 263 258 263 261 259 257 254 256 253
100 203 225 263 256 272 279 347 316 299 278 284 273 254 277 264 250 114 92 65 59 56 44 40 42 44 46 46 47 47 46 47 45 44 52 5 312 288 261 260 269 269 268 267
257 135 227 234 298 245 315 286 276 261 273 261 266 245 286 42 33 100 94 77 67 52 47 46 35 34 37 39 37 35 36 39 38 32 22 17 347 314 292 274 283 281 284 278
286 234 214 209 255 211 231 257 291 268 215 264 91 330 256 302 97 126 122 99 83 70 57 43 43 36 31 34 38 36 36 33 28 27 23 16 359 340 316 301 297 292 286 287
280 290 181 159 222 312 194 305 221 275 284 301 311 270 269 98 110 110 109 102 87 67 53 50 39 35 29 24 23 23 33 30 21 16 13 12 11 4 345 326 309 290 280 285
304 258 86 232 340 282 117 218 225 250 250 265 254 267 271 239 136 130 118 100 78 63 50 31 26 23 23 18 17 21 22 19 15 13 6 3 359 357 358 350 336 318 304 291
50 294 276 249 263 226 217 341 233 177 263 266 262 269 257 166 176 130 74 58 37 25 31 30 24 19 20 18 15 11 12 8 9 8 4 360 355 350 348 346 347 347 332 313
131 181 271 254 226 264 225 239 219 292 239 258 268 254 234 354 11 124 90 37 19 13 17 15 15 18 4 5 8 8 6 1 0 0 0 359 356 354 350 343 336 333 335 337
234 245 260 272 283 284 278 266 261 242 232 223 254 264 3 49 91 65 352 341 357 3 10 14 10 12 12 2 356 360 356 352 354 356 355 353 352 352 348 345 344 338 330 324
26 271 287 283 279 266 239 348 337 315 278 263 275 280 71 136 148 229 251 263 286 322 356 17 13 7 4 358 352 345 341 338 340 339 340 341 341 342 342 341 340 337 332 330
311 250 245 259 275 300 292 296 284 253 266 289 268 287 287 286 294 236 247 242 250 265 317 339 348 353 347 343 339 337 335 332 330 330 330 331 329 331 333 333 331 330 329 327
262 258 272 275 278 283 283 280 275 269 271 268 279 285 286 296 302 319 330 328 294 274 272 284 311 325 326 329 327 326 328 327 323 323 324 322 321 322 321 322 323 323 322 321
203 267 289 277 275 275 273 268 266 272 275 272 274 274 279 341 10 270 280 297 308 309 279 287 304 308 303 298 304 309 318 315 315 316 314 314 314 313 313 314 315 315 314 314
259 262 276 268 283 291 272 257 263 262 266 272 276 298 339 323 305 314 312 302 310 317 309 284 293 300 304 300 295 288 295 306 311 311 310 308 305 302 301 302 303 305 306 307
251 251 257 271 291 261 264 304 307 291 290 292 296 101 111 5 313 310 304 295 302 314 312 301 293 295 296 302 306 303 313 312 311 310 308 306 303 299 296 295 296 295 295 296
238 252 260 250 248 278 297 294 294 307 285 223 212 173 169 333 323 302 310 317 313 310 299 299 299 291 294 302 305 313 315 313 312 308 308 307 305 302 298 294 292 290 291 290
236 236 235 229 252 262 293 342 9 310 276 147 145 180 306 322 301 296 313 308 303 304 301 304 302 288 296 301 309 312 312 311 309 308 304 300 295 292 295 297 295 292 289 288
193 227 227 240 254 262 274 61 106 251 297 151 174 288 295 285 279 291 298 294 297 301 305 300 295 295 299 306 308 308 310 309 306 300 299 298 295 289 286 286 288 291 291 290
230 245 226 238 260 271 74 114 226 285 168 237 292 304 293 287 287 288 293 297 304 303 301 301 301 301 302 306 308 308 308 310 306 303 301 298 294 289 285 284 284 285 285 284
241 238 263 235 253 260 192 254 259 270 276 285 293 294 291 286 281 289 291 288 289 295 300 302 301 303 306 307 310 309 310 310 308 305 303 301 300 296 292 287 286 286 284 281
262 256 254 255 250 257 269 273 271 276 279 283 289 288 279 269 273 283 284 290 293 299 302 303 305 307 308 310 312 312 312 312 310 307 305 306 307 307 304 297 289 285 283 281
250 269 253 257 259 266 265 266 267 271 273 275 279 285 274 269 276 282 286 292 298 300 303 304 306 307 310 313 314 315 317 316 312 309 309 310 310 307 302 298 293 288 284 281
246 251 258 261 264 265 270 279 284 285 284 275 270 266 268 277 277 278 286 292 297 299 304 307 309 310 315 316 317 320 320 317 313 310 311 309 306 304 301 299 297 296 290 287
Wind_Speed_850mb
19 15 21 31 33 41 45 46 49 42 38 45 47 48 39 53 61 67 57 49 33 21 20 28 32 28 24 16 10 13 21 30 38 44 54 61 70 71 71 75 75 76 80 81
8 24 32 33 33 26 36 45 47 43 35 31 37 47 50 49 55 55 44 33 12 15 26 33 35 32 34 24 13 7 4 16 25 27 33 36 35 48 55 64 69 76 80 84
31 30 31 25 30 35 41 38 44 49 40 37 39 41 27 17 35 27 17 19 39 33 32 36 40 46 45 45 39 24 14 6 4 15 24 27 34 40 33 48 57 69 73 82
18 4 7 20 28 33 39 33 29 29 25 23 10 18 30 38 26 23 34 39 36 35 34 34 36 44 48 50 50 52 45 33 22 11 7 13 16 24 23 32 40 53 60 69
4 9 10 17 17 22 29 11 17 18 22 30 26 18 9 10 15 31 30 32 35 36 35 38 40 41 47 49 49 45 43 40 37 28 14 8 14 18 20 21 31 39 45 49
26 3 8 9 16 17 10 20 28 31 15 16 26 26 12 5 16 26 27 27 29 29 32 35 38 44 48 47 47 46 45 45 41 33 26 18 12 13 18 21 30 36 39 45
23 24 17 9 13 15 14 15 12 10 13 15 10 13 19 22 14 18 21 22 24 25 28 32 35 36 40 43 42 42 43 47 45 41 36 31 26 21 18 16 25 28 32 39
20 24 12 17 13 8 12 5 6 11 15 29 29 18 20 5 27 28 24 24 22 21 21 23 23 24 27 31 35 39 42 40 40 40 41 39 36 33 26 24 24 24 29 34
17 12 7 8 3 6 8 9 10 7 16 10 19 41 38 28 25 22 22 20 18 18 21 24 24 25 27 29 33 39 42 41 38 35 35 37 41 42 40 36 30 29 30 34
4 16 7 6 4 16 11 8 9 9 12 29 27 36 25 17 10 14 12 17 20 22 24 23 24 25 27 30 34 42 47 44 42 39 35 33 31 33 37 43 44 40 34 34
8 7 11 9 13 25 7 9 9 7 10 20 25 17 10 21 10 16 9 9 13 16 19 20 20 21 28 32 37 38 41 46 50 48 43 38 38 38 36 36 38 43 47 47
15 8 17 45 42 38 27 32 33 18 16 16 22 25 16 19 15 6 4 8 10 11 13 17 20 23 25 33 38 43 43 44 47 48 48 49 46 42 41 41 40 42 43 44
10 5 11 14 26 3 10 10 13 23 9 30 30 23 13 18 12 6 14 8 7 6 11 15 20 25 26 28 35 40 44 47 50 53 54 54 54 54 52 52 51 48 48 48
3 13 23 26 36 40 41 43 35 21 13 26 21 30 43 36 20 10 11 12 9 6 7 14 16 19 21 25 29 35 40 45 51 52 55 58 62 62 60 59 60 59 58 57
8 19 28 33 39 35 31 34 47 43 39 37 43 45 47 40 30 15 7 8 10 14 14 14 14 19 25 30 34 38 42 47 54 57 58 60 63 64 68 70 70 70 68 65
9 19 21 31 38 40 44 50 53 46 46 50 49 52 43 21 4 8 9 10 17 22 21 17 16 19 22 24 29 36 47 50 53 56 60 65 69 72 74 78 82 85 81 76
12 11 12 32 33 32 29 43 42 49 50 49 44 33 13 12 6 8 14 21 27 29 30 27 25 25 25 26 28 32 38 50 58 60 64 68 74 78 80 82 86 90 95 95
26 25 17 24 21 35 22 14 24 29 32 30 18 3 8 2 16 21 24 27 30 36 38 37 39 40 37 37 37 41 62 68 73 76 79 79 78 80 84 89 92 93 93 96
37 29 16 15 25 35 44 34 29 19 31 4 11 13 5 18 30 36 27 29 35 39 38 40 47 44 40 44 46 74 84 82 81 80 80 81 84 87 88 89 91 96 102 104
12 26 21 13 19 24 22 11 2 6 23 15 12 8 14 27 18 23 42 39 39 39 41 46 43 49 54 61 77 82 82 81 80 81 81 81 80 84 100 108 112 113 113 114
6 8 27 26 26 25 17 1 4 15 16 23 13 19 31 21 32 45 46 42 38 41 42 40 47 55 65 76 83 93 92 81 75 79 87 88 84 84 89 95 108 112 121 129
14 12 13 11 17 26 6 10 15 17 6 14 36 45 42 44 40 38 41 40 38 36 45 53 63 73 79 83 88 94 100 94 96 100 104 101 94 90 92 93 103 98 95 98
15 20 13 15 14 19 23 23 31 34 43 61 65 58 46 42 39 34 34 31 35 46 52 57 66 77 81 83 88 98 107 106 107 108 111 111 108 103 97 87 90 90 87 87
32 50 28 32 36 51 58 66 65 66 61 62 59 50 42 35 31 38 35 38 41 47 53 59 70 78 88 92 95 96 97 97 100 105 108 107 99 95 88 81 77 81 84 85
30 22 28 30 45 50 60 66 66 63 64 60 46 47 41 33 34 35 39 41 46 52 58 62 72 81 89 93 91 88 91 92 95 96 93 89 86 79 81 80 77 77 80 81
48 38 26 30 54 45 53 59 53 52 58 52 51 46 39 39 39 37 39 41 47 52 59 69 74 82 83 83 85 85 83 82 84 88 86 84 84 82 81 82 84 74 73 75
Wind_Direction_850mb
193 224 224 253 255 261 277 284 282 283 288 291 289 291 291 291 285 270 282 288 294 314 27 37 28 24 25 11 343 260 245 249 246 241 236 238 241 244 242 239 241 241 244 242
200 247 262 279 281 288 281 280 281 284 281 290 295 290 295 280 276 280 286 296 323 72 53 38 35 39 35 28 14 12 281 245 255 235 241 237 239 243 248 247 243 242 242 243
261 282 306 290 276 271 266 275 284 291 305 300 289 285 266 268 278 303 349 93 84 70 56 44 43 47 53 47 38 30 29 32 261 258 248 244 229 240 244 248 246 245 245 247
260 351 319 293 275 272 282 294 309 306 311 297 18 288 301 277 270 94 75 76 63 56 58 53 50 46 46 51 56 55 53 50 48 34 308 263 258 263 261 259 257 254 256 253
100 203 225 263 256 272 279 347 316 299 278 284 273 254 277 264 250 114 92 65 59 56 44 40 42 44 46 46 47 47 46 47 45 44 52 5 312 288 261 260 269 269 268 267
257 135 227 234 298 245 315 286 276 261 273 261 266 245 286 42 33 100 94 77 67 52 47 46 35 34 37 39 37 35 36 39 38 32 22 17 347 314 292 274 283 281 284 278
286 234 214 209 255 211 231 257 291 268 215 264 91 330 256 302 97 126 122 99 83 70 57 43 43 36 31 34 38 36 36 33 28 27 23 16 359 340 316 301 297 292 286 287
280 290 181 159 222 312 194 305 221 275 284 301 311 270 269 98 110 110 109 102 87 67 53 50 39 35 29 24 23 23 33 30 21 16 13 12 11 4 345 326 309 290 280 285
304 258 86 232 340 282 117 218 225 250 250 265 254 267 271 239 136 130 118 100 78 63 50 31 26 23 23 18 17 21 22 19 15 13 6 3 359 357 358 350 336 318 304 291
50 294 276 249 263 226 217 341 233 177 263 266 262 269 257 166 176 130 74 58 37 25 31 30 24 19 20 18 15 11 12 8 9 8 4 360 355 350 348 346 347 347 332 313
131 181 271 254 226 264 225 239 219 292 239 258 268 254 234 354 11 124 90 37 19 13 17 15 15 18 4 5 8 8 6 1 0 0 0 359 356 354 350 343 336 333 335 337
234 245 260 272 283 284 278 266 261 242 232 223 254 264 3 49 91 65 352 341 357 3 10 14 10 12 12 2 356 360 356 352 354 356 355 353 352 352 348 345 344 338 330 324
26 271 287 283 279 266 239 348 337 315 278 263 275 280 71 136 148 229 251 263 286 322 356 17 13 7 4 358 352 345 341 338 340 339 340 341 341 342 342 341 340 337 332 330
311 250 245 259 275 300 292 296 284 253 266 289 268 287 287 286 294 236 247 242 250 265 317 339 348 353 347 343 339 337 335 332 330 330 330 331 329 331 333 333 331 330 329 327
262 258 272 275 278 283 283 280 275 269 271 268 279 285 286 296 302 319 330 328 294 274 272 284 311 325 326 329 327 326 328 327 323 323 324 322 321 322 321 322 323 323 322 321
203 267 289 277 275 275 273 268 266 272 275 272 274 274 279 341 10 270 280 297 308 309 279 287 304 308 303 298 304 309 318 315 315 316 314 314 314 313 313 314 315 315 314 314
259 262 276 268 283 291 272 257 263 262 266 272 276 298 339 323 305 314 312 302 310 317 309 284 293 300 304 300 295 288 295 306 311 311 310 308 305 302 301 302 303 305 306 307
251 251 257 271 291 261 264 304 307 291 290 292 296 101 111 5 313 310 304 295 302 314 312 301 293 295 296 302 306 303 313 312 311 310 308 306 303 299 296 295 296 295 295 296
238 252 260 250 248 278 297 294 294 307 285 223 212 173 169 333 323 302 310 317 313 310 299 299 299 291 294 302 305 313 315 313 312 308 308 307 305 302 298 294 292 290 291 290
236 236 235 229 252 262 293 342 9 310 276 147 145 180 306 322 301 296 313 308 303 304 301 304 302 288 296 301 309 312 312 311 309 308 304 300 295 292 295 297 295 292 289 288
193 227 227 240 254 262 274 61 106 251 297 151 174 288 295 285 279 291 298 294 297 301 305 300 295 295 299 306 308 308 310 309 306 300 299 298 295 289 286 286 288 291 291 290
230 245 226 238 260 271 74 114 226 285 168 237 292 304 293 287 287 288 293 297 304 303 301 301 301 301 302 306 308 308 308 310 306 303 301 298 294 289 285 284 284 285 285 284
241 238 263 235 253 260 192 254 259 270 276 285 293 294 291 286 281 289 291 288 289 295 300 302 301 303 306 307 310 309 310 310 308 305 303 301 300 296 292 287 286 286 284 281
262 256 254 255 250 257 269 273 271 276 279 283 289 288 279 269 273 283 284 290 293 299 302 303 305 307 308 310 312 312 312 312 310 307 305 306 307 307 304 297 289 285 283 281
250 269 253 257 259 266 265 266 267 271 273 275 279 285 274 269 276 282 286 292 298 300 303 304 306 307 310 313 314 315 317 316 312 309 309 310 310 307 302 298 293 288 284 281
246 251 258 261 264 265 270 279 284 285 284 275 270 266 268 277 277 278 286 292 297 299 304 307 309 310 315 316 317 320 320 317 313 310 311 309 306 304 301 299 297 296 290 287